Content
SEND FEEDBACK

Daily
Averages
Monthly
Summary
United States of America

MAURICEVILLE, TEXAS


Home > North America > United States > Texas
Elevation: 20 feet     Latitude: 30 14N     Longitude: 093 44W

WEATHER
 
SELECT A DAY
Number of Records: 108,109;   Date Range: 8/25/05 - 7/27/14
 
SHARE

PRINT THIS DATA

[ ← Previous Day ]
WEATHER ALMANAC - MARCH 17, 2013
[ Next Day → ]
[ °C ]   °F
Weather ElementAverageHighLow
Temperature67.3 °F73.4 °F (11:35 am)60.8 °F (2:15 am)
Dewpoint65.2 °F68 °F (11:55 am)60.8 °F (12:35 am)
Humidity93.5 %100 % (12:55 am)73 % (11:35 am)
Barometer29.85 in29.93 in (12:35 am)29.77 in (5:15 pm)
Wind Speed6 mph19.6 mph (2:55 pm)
Wind Gust26.5 mph (12:35 pm)
Weather ElementAverage
Visibility8.2 mi
Wind DirectionENE (81 °)

Weather ElementTotal
Precipitation---
Cooling Degree Days2.1 (Base 65)
Growing Degree Days17.1 (Base 50)
Averaged from 70 records on March 17, 2013
WEATHER CONDITIONS BREAKOUT
WIND DIRECTION BREAKOUT
WEATHER BY HOUR - MARCH 17, 2013
[ °C ]   °F
Local TimeTemperatureDewpointHumidityBarometerVisibilityWind DirectionWind SpeedGust SpeedPrecipitationEventsConditions
12:35 AM62.6 °F60.8 °F94 %29.93 in10.0 miSSE (150°)5.8 mphClear
12:55 AM62.6 °F62.6 °F100 %29.93 in10.0 miSSE (150°)5.8 mphClear
1:15 AM62.6 °F62.6 °F100 %29.92 in10.0 miSSE (150°)5.8 mphClear
1:35 AM62.6 °F60.8 °F94 %29.91 in10.0 miCalmClear
1:55 AM62.6 °F60.8 °F94 %29.91 in10.0 miCalmClear
2:15 AM60.8 °F60.8 °F100 %29.91 in10.0 miCalmClear
2:35 AM60.8 °F60.8 °F100 %29.90 in10.0 miCalmClear
2:55 AM60.8 °F60.8 °F100 %29.89 in10.0 miCalmClear
3:15 AM60.8 °F60.8 °F100 %29.88 in10.0 miCalmClear
3:35 AM60.8 °F60.8 °F100 %29.87 in10.0 miCalmClear
3:55 AM60.8 °F60.8 °F100 %29.87 in10.0 miCalmClear
4:15 AM60.8 °F60.8 °F100 %29.86 in10.0 miCalmClear
4:35 AM60.8 °F60.8 °F100 %29.86 in10.0 miCalmClear
4:55 AM60.8 °F60.8 °F100 %29.86 in10.0 miCalmMostly Cloudy
5:15 AM60.8 °F60.8 °F100 %29.86 in10.0 miCalmMostly Cloudy
5:35 AM62.6 °F62.6 °F100 %29.86 in10.0 miCalmOvercast
5:55 AM62.6 °F62.6 °F100 %29.87 in10.0 miCalmOvercast
6:15 AM62.6 °F62.6 °F100 %29.87 in10.0 miCalmOvercast
6:35 AM62.6 °F62.6 °F100 %29.87 in10.0 miCalmMostly Cloudy
6:55 AM62.6 °F62.6 °F100 %29.87 in7.0 miCalmOvercast
7:15 AM64.4 °F62.6 °F94 %29.88 in7.0 miCalmOvercast
7:35 AM64.4 °F62.6 °F94 %29.88 in7.0 miCalmScattered Clouds
7:55 AM64.4 °F64.4 °F100 %29.89 in5.0 miCalmMostly Cloudy
8:15 AM64.4 °F64.4 °F100 %29.89 in5.0 miCalmOvercast
8:35 AM64.4 °F64.4 °F100 %29.90 in5.0 miCalmOvercast
8:55 AM64.4 °F64.4 °F100 %29.90 in5.0 miCalmOvercast
9:15 AM66.2 °F64.4 °F94 %29.90 in5.0 miCalmMostly Cloudy
9:35 AM68.0 °F66.2 °F94 %29.90 in7.0 miSE (140°)4.6 mphScattered Clouds
9:55 AM69.8 °F66.2 °F88 %29.91 in7.0 miSSE (150°)8.1 mphScattered Clouds
10:15 AM69.8 °F64.4 °F83 %29.91 in10.0 miSouth (170°)10.4 mphClear
10:35 AM69.8 °F64.4 °F83 %29.91 in10.0 miCalmClear
10:55 AM71.6 °F64.4 °F78 %29.91 in10.0 miSouth (170°)3.5 mph16.1 mphClear
11:15 AM71.6 °F64.4 °F78 %29.90 in10.0 miSouth (170°)11.5 mphScattered Clouds
11:35 AM73.4 °F64.4 °F73 %29.90 in10.0 miSouth (170°)11.5 mph17.3 mphMostly Cloudy
11:55 AM71.6 °F68.0 °F88 %29.89 in10.0 miSouth (180°)13.8 mph18.4 mphOvercast
12:15 PM73.4 °F68.0 °F83 %29.89 in10.0 miSSE (160°)12.7 mph23.0 mphMostly Cloudy
12:35 PM73.4 °F68.0 °F83 %29.88 in10.0 miSouth (170°)18.4 mph26.5 mphOvercast
12:55 PM73.4 °F68.0 °F83 %29.88 in10.0 miSSE (160°)15.0 mph21.9 mphMostly Cloudy
1:15 PM71.6 °F68.0 °F88 %29.88 in10.0 miSSE (160°)16.1 mph21.9 mphOvercast
1:35 PM71.6 °F68.0 °F88 %29.87 in7.0 miSSE (160°)12.7 mph19.6 mphOvercast
1:55 PM71.6 °F68.0 °F88 %29.86 in10.0 miSSE (160°)13.8 mph19.6 mphOvercast
2:15 PM71.6 °F68.0 °F88 %29.85 in10.0 miSSE (160°)16.1 mph20.7 mphOvercast
2:35 PM71.6 °F68.0 °F88 %29.84 in10.0 miSSE (160°)16.1 mph23.0 mphOvercast
2:55 PM71.6 °F68.0 °F88 %29.84 in10.0 miSouth (170°)19.6 mph23.0 mphOvercast
3:15 PM73.4 °F68.0 °F83 %29.82 in10.0 miSouth (170°)18.4 mph23.0 mphOvercast
3:35 PM71.6 °F68.0 °F88 %29.82 in10.0 miSouth (170°)18.4 mph23.0 mphOvercast
3:55 PM73.4 °F68.0 °F83 %29.81 in10.0 miSouth (170°)13.8 mph24.2 mphOvercast
4:15 PM71.6 °F66.2 °F83 %29.80 in10.0 miSouth (170°)13.8 mph21.9 mphOvercast
4:35 PM71.6 °F68.0 °F88 %29.79 in10.0 miSSE (160°)17.3 mph21.9 mphOvercast
4:55 PM73.4 °F68.0 °F83 %29.78 in10.0 miSSE (160°)18.4 mph21.9 mphScattered Clouds
5:15 PM71.6 °F68.0 °F88 %29.77 in10.0 miSSE (160°)16.1 mph25.3 mphClear
5:35 PM71.6 °F66.2 °F83 %29.77 in10.0 miSSE (160°)11.5 mph19.6 mphScattered Clouds
5:55 PM71.6 °F68.0 °F88 %29.77 in10.0 miSSE (160°)10.4 mph17.3 mphMostly Cloudy
6:15 PM71.6 °F68.0 °F88 %29.78 in10.0 miSSE (160°)12.7 mph17.3 mphOvercast
6:35 PM69.8 °F68.0 °F94 %29.78 in10.0 miSSE (160°)10.4 mphOvercast
6:55 PM69.8 °F68.0 °F94 %29.77 in7.0 miSSE (160°)11.5 mph16.1 mphOvercast
7:15 PM69.8 °F68.0 °F94 %29.77 in7.0 miSSE (150°)11.5 mphOvercast
7:35 PM68.0 °F68.0 °F100 %29.78 in7.0 miCalmOvercast
7:55 PM68.0 °F68.0 °F100 %29.78 in7.0 miCalmOvercast
8:15 PM68.0 °F68.0 °F100 %29.79 in7.0 miSSE (160°)5.8 mphOvercast
8:35 PM68.0 °F68.0 °F100 %29.79 in7.0 miCalmOvercast
9:15 PM68.0 °F68.0 °F100 %29.80 in5.0 miCalmOvercast
9:35 PM68.0 °F68.0 °F100 %29.80 in5.0 miCalmOvercast
9:55 PM68.0 °F68.0 °F100 %29.81 in4.0 miCalmOvercast
10:15 PM68.0 °F68.0 °F100 %29.81 in2.5 miCalmOvercast
10:35 PM68.0 °F68.0 °F100 %29.82 in1.5 miSouth (170°)4.6 mphOvercast
10:55 PM66.2 °F66.2 °F100 %29.81 in1.2 miCalmOvercast
11:15 PM66.2 °F66.2 °F100 %29.81 in1.0 miSouth (170°)6.9 mphOvercast
11:35 PM66.2 °F66.2 °F100 %29.81 in0.8 miCalmOvercast
11:55 PM66.2 °F66.2 °F100 %29.81 in1.0 miCalmOvercast
Hourly data recorded from KORG, located miles away from Mauriceville, Texas







STORIES FROM OUR PARTNERS